User: anonymous   Login
Location: Caltech
(34.1382°N, 118.1253°W)
Time: 19:57:42
(UTC-08:00)
Language:

Iridium 21 - Orbit

View from above orbital plane
View from above orbital plane
View from above satellite
View from above satellite

Ground track
Ground track

The orbit data is extracted from the following two-line orbital elements,

1 25778U 99032B   17050.62826610 -.00000018  00000-0 -13435-4 0  9997
2 25778  86.3934 273.1032 0002023  86.7260 273.4167 14.34218217931262
Epoch (UTC): 19 February 2017 15:04:42
Eccentricity: 0.0002023
inclination: 86.3934°
perigee height: 776 km
apogee height: 779 km
right ascension of ascending node: 273.1032°
argument of perigee: 86.7260°
revolutions per day: 14.34218217
mean anomaly at epoch: 273.4167°
orbit number at epoch: 93126

The dashed part of the orbit path shows where the satellite is in the earth's shadow,  

DLR